Regional Weather Roundup
Issued by NWS

Home | Current Version | Previous Version | Graphics & Text | Print | Product List | Glossary On
Versions: 1 2 3 4 5 6 7 8 9 10 11 12 13 14 15 16 17 18 19 20 21 22 23 24 25 26 27 28 29 30 31 32 33 34 35 36 37 38 39 40 41 42 43 44 45 46 47 48 49 50
000
ASUS45 KSLC 031310
RWRUT

UTAH REGIONAL WEATHER ROUNDUP
NATIONAL WEATHER SERVICE SALT LAKE CITY UT
700 AM MDT TUE MAY 03 2016

UTZ001>011-023>025-031400-

NORTHERN UTAH

CITY           SKY/WX    TMP DP  RH WIND       PRES   REMARKS
BRIGHAM CITY     N/A     41  33  73 CALM      30.23R
DUGWAY         CLEAR     39  35  86 CALM      30.23
HILL AFB         N/A     43  31  61 E16       30.22S
LOGAN            N/A     37  34  89 CALM      30.25R
OGDEN            N/A     43  32  65 S8        30.22R
PROVO AIRPORT  NOT AVBL
SALT LAKE CITY   N/A     48  35  60 SE6       30.22R
VERNAL           N/A     36  23  59 CALM      30.24R
WENDOVER         N/A     45  36  70 NE3       30.22R
HEBER CITY       N/A     32  28  86 CALM      30.27R

$$

UTZ012>022-026-027-031400-

SOUTHERN/CENTRAL UTAH

CITY           SKY/WX    TMP DP  RH WIND       PRES   REMARKS
BLANDING         N/A     39  32  76 CALM      30.28R
BRYCE CANYON     N/A     27  24  89 W8        30.29R WCI  19
CEDAR CITY       N/A     35  31  85 S5        30.22R WCI  31
DELTA            N/A     41  37  87 CALM      30.23R
HANKSVILLE       N/A     41  37  87 CALM      30.21R
MILFORD          N/A     37  32  82 CALM      30.22R
MOAB/CYNLANDS    N/A     42  36  79 W3        30.18R
PRICE            N/A     44  27  51 E3        30.23R
ST GEORGE        N/A     52  39  62 S3        30.17R
KANAB            N/A     45  36  70 N12       30.24

$$

REGIONAL REPORTS     COLORADO/ARIZONA

CITY           SKY/WX    TMP DP  RH WIND       PRES   REMARKS
CRAIG, CO        N/A     28  25  88 CALM      30.28R
GRAND JUNCTION   N/A     38  36  92 CALM      30.21R
RIFLE            N/A     35  30  82 CALM      30.26R
MONTROSE         N/A     37  30  75 S8        30.26R WCI  31
CORTEZ           N/A     32  29  88 NE5       30.22R WCI  27
PAGE, AZ         N/A     49  39  68 CALM      30.18R
GRAND CANYON     N/A     39  33  79 NE9       30.23R WCI  33
KINGMAN          N/A     50  40  68 SE6       30.09R
FLAGSTAFF        N/A     30  30 100 CALM      30.22R

$$

REGIONAL REPORTS    NEVADA/IDAHO/WYOMING

CITY           SKY/WX    TMP DP  RH WIND       PRES   REMARKS
LAS VEGAS, NV    N/A     63  41  44 CALM      30.03R
ELY              N/A     31  28  89 S9        30.27R WCI  23
ELKO             N/A     39  33  79 E3        30.22R
POCATELLO, ID    N/A     35  30  82 CALM      30.24R
BURLEY           N/A     38  36  92 SW3       30.20R
EVANSTON, WY     N/A     38  24  57 SE5       30.29R WCI  34
ROCK SPRINGS     N/A     34  22  61 S3        30.28R

$$



USA.gov is the U.S. government's official web portal to all federal, state and local government web resources and services.